Weather History for KVOK - August, 2013

Change the Weather History Date:

Thursday, August 8, 2013

  Actual Average Record
Temperature  
Mean Temperature 60 °F -  
Max Temperature 78 °F - - ()
Min Temperature 42 °F - - ()
Degree Days  
Heating Degree Days 5    
Growing Degree Days 10 (Base 50)    
Moisture  
Dew Point 50 °F    
Average Humidity 90    
Maximum Humidity 100    
Minimum Humidity 47    
Precipitation  
Precipitation 0.00 in - - ()
Sea Level Pressure  
Sea Level Pressure 30.04 in    
Wind  
Wind Speed 1 mph (NW)    
Max Wind Speed 10 mph    
Max Gust Speed -    
Visibility 4 miles    
Events Fog    
T = Trace of Precipitation, MM = Missing Value Source: NWS Daily Summary

Daily Weather History Graph

Daily Weather History Graph

Search for Another Location

Airport or City:

Trip Planner

Search our weather history database for the weather conditions in past years. The results will help you decide how hot, cold, wet, or windy it might be!

Date:

Astronomy

Aug. 08, 2013 Rise Set
Actual Time 5:57 AM CDT 8:15 PM CDT
Civil Twilight 5:25 AM CDT 8:46 PM CDT
Nautical Twilight 4:45 AM CDT 9:26 PM CDT
Astronomical Twilight 4:01 AM CDT 10:10 PM CDT
Moon 7:50 AM CDT (8/8) 8:46 PM CDT (8/8)
Length of Visible Light 15h 21m
Length of Day
14h 17m
Waxing Crescent, 3% of the Moon is Illuminated
Aug 8
Waxing Crescent
Aug 14
First Quarter
Aug 20
Full
Aug 28
Last Quarter
Sep 5
New

Hourly Weather History & Observations

Time (CDT) Temp. Dew Point Humidity Pressure Visibility Wind Dir Wind Speed Gust Speed Precip Events Conditions
12:58 AM 50.7 °F 50.7 °F 100% 30.03 in 10.0 mi West 3.5 mph - N/A   Clear
1:13 AM 50.0 °F 50.0 °F 100% 30.03 in 6.0 mi Calm Calm - N/A   Clear
1:18 AM 50.0 °F 50.0 °F 100% 30.03 in 2.5 mi Calm Calm - N/A   Clear
1:23 AM 50.0 °F 50.0 °F 100% 30.03 in 1.0 mi Calm Calm - N/A   Clear
1:28 AM 50.0 °F 50.0 °F 100% 30.03 in 0.8 mi Calm Calm - N/A   Clear
1:38 AM 50.0 °F 50.0 °F 100% 30.03 in 0.8 mi Calm Calm - N/A   Clear
1:43 AM 50.0 °F 50.0 °F 100% 30.03 in 0.8 mi Calm Calm - N/A   Clear
1:48 AM 48.2 °F 48.2 °F 100% 30.03 in 1.0 mi Calm Calm - N/A   Clear
1:53 AM 48.2 °F 48.2 °F 100% 30.03 in 1.0 mi Calm Calm - N/A   Clear
1:58 AM 47.8 °F 47.8 °F 100% 30.04 in 0.5 mi Calm Calm - N/A Fog Fog
2:53 AM 46.4 °F 46.4 °F 100% 30.05 in 0.8 mi Calm Calm - N/A   Mostly Cloudy
2:58 AM 47.1 °F 47.1 °F 100% 30.06 in 0.8 mi NW 2.3 mph - N/A   Mostly Cloudy
3:08 AM 46.4 °F 46.4 °F 100% 30.05 in 1.2 mi NW 2.3 mph - N/A   Overcast
3:13 AM 48.2 °F 48.2 °F 100% 30.05 in 3.0 mi Calm Calm - N/A   Overcast
3:18 AM 46.4 °F 46.4 °F 100% 30.06 in 8.0 mi Calm Calm - N/A   Overcast
3:23 AM 46.4 °F 46.4 °F 100% 30.06 in 10.0 mi NNW 1.2 mph - N/A   Overcast
3:38 AM 48.2 °F 48.2 °F 100% 30.06 in 2.0 mi Calm Calm - N/A   Overcast
3:43 AM 48.2 °F 48.2 °F 100% 30.05 in 1.2 mi NNW 1.2 mph - N/A   Overcast
3:48 AM 48.2 °F 48.2 °F 100% 30.05 in 2.0 mi NNW 1.2 mph - N/A   Overcast
3:53 AM 48.2 °F 48.2 °F 100% 30.05 in 1.5 mi NNW 1.2 mph - N/A   Overcast
3:58 AM 48.2 °F 48.2 °F 100% 30.06 in 1.0 mi Calm Calm - N/A   Overcast
4:08 AM 48.2 °F 48.2 °F 100% 30.05 in 0.8 mi Calm Calm - N/A   Overcast
4:33 AM 46.4 °F 46.4 °F 100% 30.04 in 0.5 mi Calm Calm - N/A Fog Fog
4:48 AM 46.4 °F 46.4 °F 100% 30.03 in 0.2 mi Calm Calm - N/A Fog Fog
4:58 AM 46.0 °F 46.0 °F 100% 30.04 in 0.2 mi Calm Calm - N/A Fog Fog
5:03 AM 46.4 °F 46.4 °F 100% 30.03 in 0.5 mi Calm Calm - N/A Fog Fog
5:08 AM 44.6 °F 44.6 °F 100% 30.03 in 0.2 mi Calm Calm - N/A Fog Fog
5:18 AM 44.6 °F 44.6 °F 100% 30.03 in 0.5 mi Calm Calm - N/A Fog Fog
5:33 AM 44.6 °F 44.6 °F 100% 30.03 in 0.5 mi Calm Calm - N/A Fog Fog
5:38 AM 42.8 °F 42.8 °F 100% 30.03 in 0.2 mi Calm Calm - N/A Fog Fog
5:53 AM 42.8 °F 42.8 °F 100% 30.03 in 0.2 mi Calm Calm - N/A Fog Fog
5:58 AM 44.1 °F 44.1 °F 100% 30.04 in 0.2 mi Calm Calm - N/A Fog Fog
6:33 AM 42.8 °F 42.8 °F 100% 30.03 in 0.2 mi West 2.3 mph - N/A Fog Fog
6:43 AM 44.6 °F 44.6 °F 100% 30.02 in 0.2 mi Calm Calm - N/A Fog Fog
6:53 AM 44.6 °F 44.6 °F 100% 30.02 in 0.2 mi Calm Calm - N/A Fog Fog
6:58 AM 46.0 °F 46.0 °F 100% 30.04 in 0.5 mi North 1.2 mph - N/A Fog Fog
7:04 AM 48.2 °F 48.2 °F 100% 30.03 in 10.0 mi NNW 1.2 mph - N/A Fog Patches of Fog
7:58 AM 55.4 °F 55.4 °F 100% 30.07 in 10.0 mi WNW 3.5 mph - N/A   Partly Cloudy
8:58 AM 60.8 °F 60.8 °F 100% 30.07 in 10.0 mi Variable 2.3 mph - N/A   Partly Cloudy
9:58 AM 69.8 °F 55.4 °F 60% 30.06 in 10.0 mi SE 6.9 mph - N/A   Partly Cloudy
10:58 AM 71.6 °F 55.4 °F 57% 30.06 in 10.0 mi SSE 2.3 mph - N/A   Partly Cloudy
11:58 AM 73.4 °F 51.8 °F 47% 30.08 in 10.0 mi ESE 8.1 mph - N/A   Scattered Clouds
12:58 PM 75.2 °F 54.5 °F 48% 30.06 in 10.0 mi SW 4.6 mph - N/A   Scattered Clouds
1:58 PM 75.2 °F 53.6 °F 47% 30.04 in 10.0 mi Variable 2.3 mph - N/A   Mostly Cloudy
2:58 PM 75.2 °F 55.4 °F 50% 30.03 in 10.0 mi Calm Calm - N/A   Mostly Cloudy
3:58 PM 78.1 °F 57.2 °F 49% 30.01 in 10.0 mi North 4.6 mph - N/A   Scattered Clouds
4:58 PM 77.7 °F 57.0 °F 49% 30.01 in 10.0 mi NNW 10.4 mph - N/A   Clear
5:58 PM 75.9 °F 56.3 °F 50% 30.02 in 10.0 mi NW 3.5 mph - N/A   Clear
6:58 PM 74.1 °F 57.6 °F 56% 30.02 in 10.0 mi NW 3.5 mph - N/A   Partly Cloudy
7:58 PM 68.7 °F 58.6 °F 70% 30.02 in 10.0 mi Calm Calm - N/A   Clear
9:58 PM 60.3 °F 59.5 °F 97% 30.01 in 10.0 mi Calm Calm - N/A   Mostly Cloudy